Tracking 28790 objects as of 19-Apr-2024
HD Live streaming from Space Station
objects crossing your sky now

ARIANE 42P R/B

Track ARIANE 42P R/B now!
10-day predictions


NORAD ID: 20947
Int'l Code: 1990-100C
Perigee: 291.0 km
Apogee: 19,727.8 km
Inclination: 7.1 °
Period: 347.7 minutes
Semi major axis: 16380 km
RCS: 30.3663 m2 (large)
Launch date: November 20, 1990
Source: France (FR)
Launch site: FRENCH GUIANA (FRGUI)

Note: This is a ROCKET BODY
Your satellite tracking list
Your tracking list is empty




NASA's NSSDC Master Catalog

Two Line Element Set (TLE):
1 20947U 90100C   24110.14147173  .00014870  00000-0  29539-2 0  9998
2 20947   7.0892 307.3182 5932961 150.9368 261.8030  4.14111134346060
Source of the keplerian elements: AFSPC